Weather History for KAUO - November, 2013

Change the Weather History Date:

Thursday, November 21, 2013

  Actual Average Record
Temperature  
Mean Temperature 56 °F -  
Max Temperature 61 °F - 79 °F (1979)
Min Temperature 50 °F - 22 °F (1968)
Degree Days  
Heating Degree Days 9    
Month to date heating degree days 206  
Since 1 July heating degree days 242  
Growing Degree Days 5 (Base 50)    
Moisture  
Dew Point 45 °F    
Average Humidity 70    
Maximum Humidity 82    
Minimum Humidity 54    
Precipitation  
Precipitation 0.00 in - 2.00 in (1962)
Month to date precipitation 0.78  
Year to date precipitation 40.24  
Sea Level Pressure  
Sea Level Pressure 30.30 in    
Wind  
Wind Speed 10 mph (East)    
Max Wind Speed 13 mph    
Max Gust Speed 20 mph    
Visibility 10 miles    
Events      
T = Trace of Precipitation, MM = Missing Value Source: NWS Daily Summary

Daily Weather History Graph

Daily Weather History Graph

Search for Another Location

Airport or City:

Trip Planner

Search our weather history database for the weather conditions in past years. The results will help you decide how hot, cold, wet, or windy it might be!

Date:

Astronomy

Nov. 21, 2013 Rise Set
Actual Time 6:17 AM CST 4:37 PM CST
Civil Twilight 5:50 AM CST 5:04 PM CST
Nautical Twilight 5:20 AM CST 5:34 PM CST
Astronomical Twilight 4:51 AM CST 6:03 PM CST
Moon 8:12 PM CST (11/21) 9:24 AM CST (11/21)
Length of Visible Light 11h 13m
Length of Day
10h 20m
Waning Gibbous, 85% of the Moon is Illuminated
Nov 21
Waning Gibbous
Nov 25
Last Quarter
Dec 2
New
Dec 9
First Quarter
Dec 17
Full

Hourly Weather History & Observations

Time (CST) Temp. Dew Point Humidity Pressure Visibility Wind Dir Wind Speed Gust Speed Precip Events Conditions
12:15 AM 51.8 °F 35.6 °F 54% 30.27 in 10.0 mi East 12.7 mph - N/A   Overcast
12:35 AM 51.8 °F 35.6 °F 54% 30.28 in 10.0 mi East 13.8 mph 17.3 mph N/A   Overcast
12:55 AM 51.8 °F 35.6 °F 54% 30.28 in 10.0 mi East 9.2 mph 19.6 mph N/A   Overcast
1:15 AM 50.0 °F 37.4 °F 62% 30.28 in 10.0 mi East 11.5 mph - N/A   Overcast
1:35 AM 50.0 °F 37.4 °F 62% 30.29 in 10.0 mi East 10.4 mph 17.3 mph N/A   Overcast
1:55 AM 50.0 °F 37.4 °F 62% 30.29 in 10.0 mi East 10.4 mph - N/A   Overcast
2:15 AM 50.0 °F 37.4 °F 62% 30.29 in 10.0 mi East 10.4 mph 17.3 mph N/A   Overcast
2:35 AM 50.0 °F 37.4 °F 62% 30.29 in 10.0 mi ENE 9.2 mph - N/A   Overcast
2:55 AM 51.8 °F 39.2 °F 62% 30.28 in 10.0 mi East 10.4 mph - N/A   Overcast
3:15 AM 50.0 °F 39.2 °F 66% 30.28 in 10.0 mi ENE 8.1 mph - N/A   Overcast
3:35 AM 50.0 °F 39.2 °F 66% 30.28 in 10.0 mi East 11.5 mph 18.4 mph N/A   Overcast
3:55 AM 50.0 °F 39.2 °F 66% 30.27 in 10.0 mi East 10.4 mph - N/A   Overcast
4:15 AM 50.0 °F 39.2 °F 66% 30.27 in 10.0 mi East 12.7 mph 18.4 mph N/A   Overcast
4:35 AM 50.0 °F 39.2 °F 66% 30.28 in 10.0 mi East 13.8 mph 17.3 mph N/A   Overcast
4:55 AM 50.0 °F 39.2 °F 66% 30.29 in 10.0 mi East 11.5 mph - N/A   Overcast
5:15 AM 50.0 °F 39.2 °F 66% 30.28 in 10.0 mi East 13.8 mph - N/A   Overcast
5:35 AM 51.8 °F 39.2 °F 62% 30.29 in 10.0 mi East 13.8 mph - N/A   Overcast
5:55 AM 51.8 °F 39.2 °F 62% 30.30 in 10.0 mi East 10.4 mph 18.4 mph N/A   Overcast
6:15 AM 51.8 °F 39.2 °F 62% 30.30 in 10.0 mi East 11.5 mph - N/A   Overcast
6:35 AM 51.8 °F 39.2 °F 62% 30.31 in 10.0 mi East 12.7 mph 18.4 mph N/A   Overcast
6:55 AM 51.8 °F 39.2 °F 62% 30.31 in 10.0 mi ENE 12.7 mph 19.6 mph N/A   Overcast
7:15 AM 51.8 °F 39.2 °F 62% 30.32 in 10.0 mi East 10.4 mph - N/A   Overcast
7:35 AM 51.8 °F 41.0 °F 67% 30.32 in 10.0 mi ENE 9.2 mph - N/A   Overcast
7:55 AM 51.8 °F 42.8 °F 71% 30.33 in 10.0 mi East 11.5 mph 17.3 mph N/A   Overcast
8:15 AM 53.6 °F 42.8 °F 67% 30.33 in 10.0 mi East 13.8 mph 18.4 mph N/A   Overcast
8:35 AM 53.6 °F 42.8 °F 67% 30.34 in 10.0 mi East 11.5 mph - N/A   Overcast
8:55 AM 53.6 °F 42.8 °F 67% 30.34 in 10.0 mi ENE 10.4 mph - N/A   Mostly Cloudy
9:15 AM 55.4 °F 42.8 °F 63% 30.34 in 10.0 mi ENE 11.5 mph - N/A   Mostly Cloudy
9:35 AM 57.2 °F 44.6 °F 63% 30.34 in 10.0 mi East 12.7 mph 17.3 mph N/A   Overcast
9:55 AM 57.2 °F 44.6 °F 63% 30.34 in 10.0 mi East 10.4 mph - N/A   Overcast
10:15 AM 57.2 °F 46.4 °F 67% 30.34 in 10.0 mi East 13.8 mph - N/A   Overcast
10:35 AM 57.2 °F 44.6 °F 63% 30.34 in 10.0 mi East 11.5 mph - N/A   Overcast
10:55 AM 57.2 °F 46.4 °F 67% 30.33 in 10.0 mi East 9.2 mph - N/A   Overcast
11:15 AM 57.2 °F 46.4 °F 67% 30.32 in 10.0 mi East 9.2 mph - N/A   Overcast
11:35 AM 57.2 °F 46.4 °F 67% 30.31 in 10.0 mi ESE 8.1 mph - N/A   Overcast
11:55 AM 57.2 °F 46.4 °F 67% 30.31 in 10.0 mi East 9.2 mph - N/A   Overcast
12:15 PM 57.2 °F 48.2 °F 72% 30.30 in 10.0 mi East 10.4 mph - N/A   Overcast
12:35 PM 57.2 °F 48.2 °F 72% 30.30 in 10.0 mi East 8.1 mph - N/A   Overcast
12:55 PM 57.2 °F 48.2 °F 72% 30.29 in 10.0 mi East 10.4 mph - N/A   Overcast
1:15 PM 57.2 °F 48.2 °F 72% 30.28 in 10.0 mi East 8.1 mph - N/A   Overcast
1:35 PM 59.0 °F 50.0 °F 72% 30.27 in 10.0 mi NE 8.1 mph - N/A   Overcast
1:55 PM 57.2 °F 50.0 °F 77% 30.27 in 10.0 mi East 6.9 mph - N/A   Overcast
2:15 PM 59.0 °F 50.0 °F 72% 30.27 in 10.0 mi East 6.9 mph - N/A   Overcast
2:35 PM 59.0 °F 51.8 °F 77% 30.27 in 10.0 mi East 8.1 mph - N/A   Overcast
2:55 PM 60.8 °F 51.8 °F 72% 30.27 in 10.0 mi East 11.5 mph - N/A   Overcast
3:15 PM 59.0 °F 51.8 °F 77% 30.27 in 10.0 mi East 10.4 mph - N/A   Mostly Cloudy
3:35 PM 60.8 °F 51.8 °F 72% 30.26 in 10.0 mi East 8.1 mph - N/A   Scattered Clouds
3:55 PM 59.0 °F 51.8 °F 77% 30.27 in 10.0 mi ENE 9.2 mph - N/A   Mostly Cloudy
4:15 PM 59.0 °F 51.8 °F 77% 30.27 in 10.0 mi East 9.2 mph - N/A   Overcast
4:35 PM 57.2 °F 51.8 °F 82% 30.26 in 10.0 mi ENE 5.8 mph - N/A   Mostly Cloudy
4:55 PM 57.2 °F 51.8 °F 82% 30.27 in 10.0 mi ENE 6.9 mph - N/A   Clear
5:15 PM 57.2 °F 50.0 °F 77% 30.28 in 10.0 mi East 9.2 mph - N/A   Clear
5:35 PM 55.4 °F 50.0 °F 82% 30.29 in 10.0 mi East 8.1 mph - N/A   Clear
5:55 PM 55.4 °F 50.0 °F 82% 30.29 in 10.0 mi East 9.2 mph - N/A   Mostly Cloudy
6:15 PM 55.4 °F 48.2 °F 77% 30.30 in 10.0 mi ENE 9.2 mph - N/A   Overcast
6:35 PM 55.4 °F 48.2 °F 77% 30.30 in 10.0 mi East 11.5 mph - N/A   Overcast
6:55 PM 55.4 °F 48.2 °F 77% 30.30 in 10.0 mi ENE 10.4 mph - N/A   Mostly Cloudy
7:15 PM 55.4 °F 48.2 °F 77% 30.30 in 10.0 mi ENE 9.2 mph - N/A   Partly Cloudy
7:35 PM 55.4 °F 48.2 °F 77% 30.30 in 10.0 mi ENE 10.4 mph - N/A   Partly Cloudy
7:55 PM 55.4 °F 48.2 °F 77% 30.31 in 10.0 mi ENE 9.2 mph - N/A   Partly Cloudy
8:15 PM 53.6 °F 48.2 °F 82% 30.31 in 10.0 mi ENE 9.2 mph - N/A   Clear
8:35 PM 53.6 °F 46.4 °F 77% 30.31 in 10.0 mi ENE 9.2 mph - N/A   Clear
8:55 PM 53.6 °F 46.4 °F 77% 30.31 in 10.0 mi East 8.1 mph - N/A   Clear
9:15 PM 53.6 °F 46.4 °F 77% 30.32 in 10.0 mi ENE 8.1 mph - N/A   Mostly Cloudy
9:35 PM 53.6 °F 46.4 °F 77% 30.32 in 10.0 mi East 8.1 mph - N/A   Overcast
9:55 PM 53.6 °F 46.4 °F 77% 30.32 in 10.0 mi East 9.2 mph - N/A   Overcast
10:15 PM 53.6 °F 46.4 °F 77% 30.33 in 10.0 mi ENE 8.1 mph - N/A   Overcast
10:35 PM 53.6 °F 46.4 °F 77% 30.33 in 10.0 mi ENE 9.2 mph - N/A   Overcast
10:55 PM 53.6 °F 46.4 °F 77% 30.33 in 10.0 mi ENE 8.1 mph - N/A   Overcast
11:15 PM 53.6 °F 46.4 °F 77% 30.32 in 10.0 mi East 9.2 mph - N/A   Mostly Cloudy
11:35 PM 53.6 °F 46.4 °F 77% 30.31 in 10.0 mi East 8.1 mph - N/A   Partly Cloudy
11:55 PM 53.6 °F 46.4 °F 77% 30.30 in 10.0 mi East 6.9 mph - N/A   Clear